RH
47 28 34 32 30 23 29 30 37 34 30 26 30 34 33 29 24 16 15 16 20 40 17 14 10 8 7 6 6 6 6 7 8 11 19 28 37 50 54 56 56 54 51
46 31 33 32 27 24 33 34 34 27 29 32 25 21 20 15 14 15 15 15 14 11 6 4 4 4 5 5 6 6 6 7 8 9 12 13 18 25 42 56 53 60 50
27 34 32 32 24 31 41 44 45 26 20 19 14 12 13 14 14 15 13 11 6 3 3 4 4 5 6 6 7 7 8 9 10 11 12 12 12 13 17 48 45 67 59
42 25 32 32 27 31 41 39 25 16 14 13 13 13 13 14 12 8 5 3 3 3 4 4 5 5 6 7 8 9 10 11 12 13 13 14 13 13 14 30 63 71 72
47 44 22 32 30 40 50 41 20 12 12 13 13 13 13 11 5 3 3 3 3 4 4 4 4 5 7 8 10 11 12 12 12 12 11 11 12 12 14 27 51 52 51
48 46 21 27 33 45 55 37 17 12 12 13 13 13 13 7 4 3 3 3 4 4 4 4 5 8 9 9 9 9 9 9 8 8 9 9 10 10 12 14 18 30 42
49 48 36 22 32 47 55 46 17 13 12 12 13 14 10 5 4 3 3 4 4 3 4 6 8 8 8 7 8 8 8 8 10 10 10 11 11 11 12 12 12 12 12
49 48 46 34 26 38 49 40 16 13 12 12 13 13 8 4 3 3 4 4 4 5 7 8 8 7 6 7 7 7 8 8 8 8 8 9 10 11 11 10 11 12 11
37 43 49 42 27 30 36 26 14 13 12 12 13 10 5 4 3 4 4 4 5 8 8 8 7 6 6 6 6 7 7 8 8 8 7 7 9 11 10 10 11 10 9
39 45 56 49 29 32 30 20 14 14 12 13 12 7 4 4 4 4 4 5 8 8 8 6 6 6 6 6 6 6 7 7 6 6 6 6 9 11 11 10 10 9 9
36 36 54 49 32 28 25 18 15 14 12 14 10 5 4 4 4 4 5 7 8 8 7 6 6 6 6 6 6 6 5 5 5 5 5 8 11 11 10 10 10 9 10
31 30 47 50 32 27 26 18 16 14 13 14 8 5 4 4 4 4 6 8 8 8 6 6 5 5 3 4 4 3 4 4 4 5 6 9 10 10 10 10 10 11 11
38 34 45 52 33 29 27 19 16 15 14 13 7 4 4 3 4 5 7 8 9 8 6 5 4 3 3 4 3 3 3 3 4 5 6 9 8 7 8 10 10 9 10
46 44 47 54 32 29 25 19 17 15 14 11 6 4 4 4 4 5 7 8 9 8 6 5 3 3 3 4 4 4 4 3 3 4 5 5 7 7 6 6 7 7 7
85 58 52 54 28 28 25 21 18 15 15 10 6 4 4 4 4 4 7 8 9 9 7 5 3 3 4 4 5 5 5 5 4 4 4 4 4 4 5 5 6 6 6
98 81 70 51 29 29 26 22 18 16 14 9 6 5 4 4 4 4 6 8 9 8 7 5 3 3 4 4 5 6 6 6 6 6 6 6 5 6 6 6 6 6 7
98 98 79 52 32 30 28 23 18 16 14 8 6 5 5 4 4 4 6 10 10 7 6 4 3 3 4 4 5 6 6 6 6 6 6 6 6 7 7 7 7 8 8
100 100 98 58 44 33 28 23 18 17 13 8 6 6 6 6 5 4 6 10 10 7 5 4 4 4 4 4 4 6 6 6 5 6 6 6 6 6 6 6 7 7 8
100 98 99 57 56 39 29 24 19 17 13 8 7 7 8 8 6 5 7 10 10 8 7 5 4 3 3 3 4 6 6 5 7 8 7 7 7 7 7 7 7 7 7
100 99 96 72 61 41 29 24 19 17 12 9 8 10 12 11 7 5 8 11 11 10 9 8 5 3 3 3 4 6 6 7 10 11 12 12 12 12 12 11 10 10 9
100 100 100 82 65 42 29 24 20 17 12 10 10 14 15 12 8 6 9 12 12 12 12 12 10 5 4 4 4 6 7 9 12 13 15 16 16 17 16 16 14 14 13
99 100 100 95 73 45 34 26 20 17 12 11 13 17 16 11 8 7 10 13 13 13 13 11 8 6 4 5 5 7 9 12 14 16 17 18 19 19 19 18 17 16 16
98 100 100 96 72 51 36 26 20 16 12 12 17 19 14 10 8 8 11 14 13 14 12 10 8 6 6 6 8 9 12 13 15 16 19 20 20 19 18 17 17 17 17
98 100 99 99 76 56 37 26 20 15 13 15 20 18 14 11 9 10 13 15 15 14 12 9 7 7 8 10 10 12 14 16 16 17 18 17 15 14 13 12 12 13 13
99 100 100 100 97 60 39 26 20 14 14 18 21 17 17 12 10 12 15 16 15 14 11 8 8 9 10 12 13 15 16 16 16 14 13 13 12 10 10 9 8 7 7
99 98 100 100 98 67 41 26 18 15 17 22 20 20 18 14 13 14 17 17 16 13 8 8 10 11 12 14 15 16 17 16 15 14 15 14 15 14 12 13 14 14 13
Wind_Speed
8 10 11 10 9 8 7 5 4 4 4 4 4 3 3 3 4 5 5 5 5 4 5 5 5 5 6 6 7 8 8 7 7 6 6 5 5 5 6 6 6 7 7
7 9 11 11 10 9 7 6 5 5 5 4 4 4 3 4 5 5 6 5 3 3 3 4 6 7 8 9 9 9 9 9 10 9 9 9 8 8 7 8 7 7 8
4 8 11 12 12 10 8 7 7 6 6 5 4 5 4 5 6 6 5 3 3 3 4 5 6 7 8 9 11 11 12 13 12 11 10 10 10 10 9 9 8 7 8
12 8 12 13 12 11 9 8 7 6 6 5 5 5 4 5 5 4 2 3 3 4 5 5 7 8 10 11 13 14 14 14 13 12 12 11 10 10 10 8 9 9 9
15 11 11 14 13 13 10 10 8 6 6 5 5 4 4 4 3 3 4 4 5 5 6 7 9 10 11 12 14 15 14 14 12 11 11 11 10 10 10 10 11 11 12
16 13 11 16 15 14 12 10 8 7 6 5 4 5 4 4 4 4 4 5 6 7 8 9 10 11 12 13 13 12 12 10 9 9 9 10 10 10 10 9 9 10 12
18 14 13 14 17 16 14 12 10 8 6 5 5 5 4 5 5 5 5 6 7 8 9 10 11 12 12 11 11 10 9 8 8 8 8 9 10 9 9 9 9 9 10
21 18 16 13 19 19 16 13 11 9 7 6 5 5 5 5 5 5 6 6 8 9 9 10 10 11 10 8 7 7 7 7 7 7 8 9 9 8 8 8 8 8 8
23 22 18 17 19 19 17 15 12 10 8 7 6 5 5 5 6 6 7 7 8 8 8 9 10 10 7 6 6 6 7 8 9 9 10 9 8 8 7 7 8 8 8
24 23 20 19 19 20 18 16 14 12 9 8 7 6 6 6 6 7 7 7 7 7 7 8 9 7 7 7 7 8 9 10 10 10 11 10 9 8 8 8 7 7 7
24 24 22 22 22 22 19 17 15 12 10 8 7 6 6 6 7 8 7 6 6 6 7 8 7 7 9 10 10 11 12 12 11 10 10 10 9 9 9 8 6 6 8
24 22 23 24 24 23 20 18 16 12 10 9 7 6 6 7 8 8 7 6 5 5 7 8 8 8 9 10 11 11 11 11 10 10 9 8 9 10 9 7 7 8 8
21 21 24 25 24 24 22 19 17 13 11 10 8 7 7 7 8 8 7 7 6 6 6 8 9 9 9 11 11 11 12 11 10 9 9 9 9 9 10 10 10 11 11
21 23 25 26 25 25 22 20 17 14 12 11 9 8 7 7 7 8 8 7 7 8 6 8 8 8 8 10 11 11 11 11 10 9 9 10 10 10 11 13 14 14 14
28 25 25 26 26 26 23 20 18 15 13 11 10 8 7 7 8 7 9 8 7 8 8 8 8 8 8 9 10 11 11 12 12 11 10 11 12 13 14 15 16 16 17
32 28 26 28 28 26 23 22 19 16 14 12 10 9 7 7 8 7 8 9 8 8 8 8 8 7 9 9 10 11 12 12 13 13 12 11 12 14 15 16 17 18 17
33 30 28 30 29 27 25 23 20 17 14 12 10 9 8 7 7 8 8 9 9 8 7 8 9 9 9 9 11 12 13 13 13 13 13 12 13 15 16 17 18 18 18
37 31 30 31 31 28 26 23 20 17 15 12 10 10 9 8 7 8 8 8 9 8 6 8 10 10 10 10 11 12 13 13 14 14 15 15 15 17 18 19 19 20 19
39 30 31 32 32 29 27 23 20 18 15 13 11 10 9 9 8 8 9 8 9 8 8 9 13 12 12 12 12 12 13 14 15 15 15 16 16 17 18 19 20 20 21
39 30 30 33 33 30 28 24 20 18 16 13 11 10 9 9 9 9 8 10 9 9 9 10 14 14 14 14 13 13 14 15 16 16 16 16 17 17 19 20 21 21 22
38 32 29 35 33 31 27 23 20 18 16 14 12 10 9 9 9 10 9 11 10 10 10 11 14 15 14 15 15 15 15 16 16 17 17 17 19 19 21 21 22 23 24
37 36 30 34 34 30 27 25 22 20 16 14 12 10 10 10 9 10 9 13 12 12 12 13 14 15 15 15 16 17 16 17 17 17 19 20 21 22 23 23 24 25 26
37 36 31 35 33 31 29 26 22 18 15 14 12 10 10 10 10 11 10 13 13 12 12 14 14 15 16 16 17 19 19 18 19 19 21 22 23 24 25 25 25 26 27
35 36 32 34 34 32 30 25 21 19 17 14 12 11 10 10 10 10 11 13 13 13 13 14 15 17 17 17 18 19 21 21 21 21 22 23 23 24 25 25 26 27 28
34 35 32 35 35 31 28 26 21 18 16 14 12 11 11 11 10 11 13 12 13 14 15 15 16 17 18 19 20 21 22 23 23 23 20 21 22 25 26 27 28 29 31
34 32 33 37 38 35 26 23 21 18 16 13 11 11 10 11 11 11 12 13 14 15 16 16 17 18 19 21 21 21 22 22 24 26 26 25 25 22 24 27 29 31 33
Wind_Direction
282 225 221 230 222 215 208 218 235 265 277 288 286 290 302 307 319 322 323 337 327 351 336 332 336 334 333 336 337 340 339 327 319 315 311 303 297 299 306 309 312 319 320
254 219 221 230 224 209 202 220 238 253 263 268 281 291 304 312 314 313 317 328 330 335 352 349 345 341 339 335 331 328 323 321 326 325 320 316 314 307 304 300 296 303 309
320 235 222 228 226 212 211 223 236 252 252 255 270 292 306 312 310 314 317 336 355 350 346 342 335 331 329 327 325 324 327 328 328 328 322 318 318 310 298 294 291 294 298
313 290 232 226 227 222 222 233 232 232 239 249 268 283 300 308 311 313 333 331 326 325 328 328 327 326 325 325 325 327 331 325 326 328 321 318 310 304 304 296 290 283 287
287 290 251 229 223 222 225 237 232 231 236 251 270 281 297 301 305 305 312 315 317 320 324 328 325 325 325 326 327 329 325 326 326 323 317 313 309 307 292 278 276 268 275
272 276 260 238 225 222 228 237 236 237 243 257 270 283 293 292 287 296 304 308 313 318 320 323 320 321 323 329 329 329 332 330 330 325 323 321 316 308 308 312 288 283 281
263 265 253 247 231 229 231 235 234 239 246 257 263 279 286 293 299 299 301 306 311 314 316 318 322 321 328 334 335 337 340 336 332 330 328 325 318 320 313 312 308 302 297
256 258 249 247 232 232 234 233 232 234 243 248 258 271 282 287 287 290 297 303 308 311 313 317 319 325 334 336 340 341 341 337 330 328 329 326 323 313 309 312 313 314 312
255 258 247 245 234 231 234 232 231 231 236 241 248 261 271 275 280 287 293 301 305 307 311 319 323 329 333 329 337 336 331 322 317 320 320 317 313 305 302 301 307 310 308
250 254 245 242 235 229 231 232 229 231 234 238 246 256 265 272 279 287 295 302 306 309 319 325 325 327 325 325 322 321 316 312 314 324 325 321 311 300 291 293 296 300 306
248 255 240 233 230 227 228 229 229 230 234 238 244 256 269 278 286 291 296 300 306 316 321 324 321 322 323 321 320 318 316 315 321 329 329 328 322 303 293 291 289 296 300
257 253 238 231 229 225 225 226 228 230 232 237 239 251 266 279 287 292 296 298 304 313 318 317 314 317 321 324 325 326 324 321 327 327 328 326 320 322 317 305 298 293 296
250 248 235 233 229 223 221 223 225 227 232 236 236 244 260 275 287 292 292 295 301 300 309 310 313 322 329 331 330 333 331 326 326 325 320 315 316 318 310 302 297 297 301
242 242 231 231 226 220 220 221 223 224 229 235 239 239 257 274 285 293 290 294 301 301 304 310 316 321 328 329 329 331 329 324 324 320 318 313 313 306 302 300 300 299 300
234 241 231 227 221 219 218 219 222 225 226 231 238 245 254 270 284 297 295 297 303 303 308 313 312 316 322 321 324 325 323 322 322 318 317 315 312 308 306 304 302 301 302
228 236 231 223 216 216 217 217 220 223 225 229 237 248 259 275 286 295 294 297 302 299 300 302 301 307 308 312 316 319 322 322 320 317 317 315 312 310 310 307 304 303 302
226 232 229 218 215 214 215 216 220 223 224 227 236 249 260 273 287 292 298 299 296 293 298 298 296 297 297 303 307 314 319 318 316 313 313 314 312 311 309 306 303 300 298
220 228 227 215 211 212 213 215 219 223 225 226 234 250 263 274 283 291 293 295 290 286 290 292 290 291 296 298 301 307 312 312 312 310 310 310 308 306 305 303 300 297 295
215 225 222 209 209 209 211 214 218 222 225 227 233 248 262 275 283 287 289 292 286 289 297 302 294 293 295 296 297 301 307 307 308 307 306 307 306 305 303 301 298 296 295
216 216 217 207 208 207 208 212 217 220 223 227 233 245 261 272 280 281 289 284 287 291 300 305 298 296 298 300 298 299 303 306 305 305 305 306 305 305 302 300 297 296 294
213 213 220 207 209 207 207 209 214 218 222 227 235 246 258 269 279 282 287 285 282 293 294 297 297 298 300 302 300 299 301 303 301 302 303 303 303 301 300 300 298 296 294
208 213 210 211 206 205 206 205 209 214 221 227 235 247 259 268 274 278 285 282 289 296 300 299 297 297 300 302 299 298 300 298 298 300 300 300 300 299 298 297 296 294 293
209 211 213 211 205 203 206 207 209 212 219 228 236 248 259 271 274 277 281 284 290 294 303 297 298 298 298 299 297 298 297 297 299 301 300 299 298 297 297 296 296 292 289
200 212 208 212 208 204 205 205 205 208 215 226 237 248 262 270 275 280 284 285 291 297 296 296 298 295 296 297 297 298 298 300 300 298 299 298 299 298 298 300 297 294 291
203 208 201 207 207 203 206 203 202 208 214 223 236 249 262 272 277 280 280 288 295 296 298 299 296 296 299 298 298 300 301 301 301 300 297 297 303 303 302 300 298 298 297
200 188 201 205 201 203 207 206 202 205 212 220 235 252 266 273 272 280 280 291 294 297 298 298 298 299 298 299 301 301 300 301 302 302 300 296 294 289 295 300 303 302 299